Location: �mondeville
(49.4591°N, 1.3431°W)
Time: 13:14:38
(UTC+00:00)

NOSS 2-2 (C) - Pass Details

Date: 22 October 2019
Orbit: 490 x 1718 km, 63.3° (Epoch: 12 November)

Event Time Altitude Azimuth Distance (km) Brightness Sun altitude
Exits shadow 04:21:49 33° 343° (NNW) 980 4.5 -22.6°
Drops below altitude 10° 04:25:28 10° 33° (NNE) 2,077 6.8 -22.0°
Sets 04:28:16 0° 42° (NE) 3,173 8.0 -21.5°
